Location: Brompton
(51.4000°N, 0.5333°E)
Time: 12:02:10
(UTC+00:00)

Cosmos 1898 Rocket - Pass Details

Date: 04 October 2021
Orbit: 752 x 784 km, 74.0° (Epoch: 17 October)

Event Time Altitude Azimuth Distance (km) Brightness Sun altitude
Rises 20:53:58 0° 251° (WSW) 3,226 7.2 -31.2°
Reaches altitude 10° 20:56:56 10° 268° (W) 2,310 6.5 -31.6°
Maximum altitude 21:00:48 20° 316° (NW) 1,711 5.9 -32.0°
Drops below altitude 10° 21:04:43 10° 4° (N) 2,334 6.4 -32.5°
Sets 21:07:45 0° 21° (NNE) 3,271 7.0 -32.9°
